Wind_Speed
51 50 49 48 48 45 44 42 41 39 37 35 33 34 34 33 32 31 30 29 28 28 28 28 28 28 29 29 29 30 30 30 31 30 30 31 31 33 35 38 38 39 40
43 41 40 41 40 39 38 37 36 34 33 32 31 31 31 30 29 28 28 27 27 28 29 29 30 30 31 31 32 32 33 32 32 31 31 30 29 29 30 32 35 38 38
35 32 31 32 33 34 34 34 33 32 31 31 31 30 28 27 26 26 27 27 27 28 29 30 31 32 32 33 34 35 35 35 34 34 33 31 29 27 27 27 28 31 34
28 25 22 22 26 26 28 29 29 29 29 29 27 26 24 24 24 25 25 26 27 28 29 31 31 32 33 34 35 36 36 37 37 36 36 34 32 30 28 26 25 26 27
21 19 17 15 16 16 17 18 19 22 23 22 21 21 21 22 23 24 25 26 26 28 29 30 31 32 33 34 35 36 36 36 37 37 37 36 34 33 30 28 25 24 23
18 14 13 12 12 12 12 13 13 15 16 17 18 19 21 22 23 24 24 25 26 27 29 30 31 32 33 34 35 35 35 35 36 35 35 35 34 33 32 31 28 25 23
15 14 13 12 11 11 11 12 13 14 15 16 18 19 20 21 22 23 23 24 26 27 28 29 30 31 32 33 33 34 34 34 34 34 34 33 33 32 33 32 31 29 27
14 13 12 11 11 11 12 13 14 15 17 18 19 20 20 20 21 21 22 23 24 25 26 27 29 30 31 31 31 32 33 33 34 34 34 33 33 32 32 32 32 31 30
13 12 12 12 12 13 14 15 16 17 18 18 18 18 17 16 17 17 18 19 20 21 21 22 23 24 26 27 28 29 30 31 32 33 34 34 34 33 33 32 32 32 32
11 11 12 12 13 14 15 16 16 17 16 15 14 13 13 13 13 13 14 15 16 16 18 19 20 22 24 25 26 28 29 29 30 31 31 32 32 32 33 33 33 33 33
10 11 11 12 12 12 13 13 13 13 12 11 11 11 11 11 11 11 12 13 14 15 16 18 19 21 23 24 26 28 29 30 31 32 32 32 32 32 32 32 32 32 33
9 9 10 9 9 9 8 8 8 8 8 9 9 10 10 10 11 11 11 12 13 14 15 16 18 20 22 24 25 27 28 30 31 32 32 33 33 34 33 33 33 33 33
10 10 9 8 8 7 7 7 7 7 8 8 9 9 10 10 11 11 11 12 13 14 16 18 19 20 22 23 24 25 27 28 28 29 30 31 31 32 33 34 34 35 35
12 11 10 9 8 8 7 8 8 8 9 9 9 10 10 10 11 12 12 13 14 16 17 18 19 20 21 22 23 23 23 24 25 25 26 26 27 28 30 31 33 34 36
15 13 12 12 11 10 10 10 10 10 10 11 11 11 12 12 13 13 13 14 15 16 17 18 19 21 21 22 22 23 23 23 23 23 24 24 24 24 25 26 28 31 33
18 16 15 14 13 13 13 13 13 13 13 13 13 13 14 14 14 14 14 14 14 15 15 17 18 19 21 22 22 23 23 23 23 23 23 23 23 23 23 23 24 26 29
21 20 18 17 16 16 16 16 17 17 17 16 16 16 16 15 14 13 13 12 12 13 14 15 17 19 21 22 23 23 23 23 23 22 23 23 23 23 23 23 24 25 26
25 23 22 21 20 19 18 18 18 18 18 18 18 18 17 15 14 12 11 11 10 11 13 15 17 18 20 22 23 24 24 24 23 23 22 22 22 22 22 22 23 23 25
29 27 26 24 23 22 22 21 20 20 20 19 19 18 17 15 14 12 11 10 10 10 12 14 16 18 20 22 24 25 26 26 26 25 24 23 22 22 22 22 23 23 24
31 30 29 27 26 25 25 24 23 22 21 20 19 19 18 16 15 13 11 10 9 10 11 13 15 17 19 22 24 26 26 27 27 27 26 25 24 24 24 24 24 25 25
31 30 29 28 28 27 26 26 24 23 22 21 21 20 19 17 16 15 13 11 10 10 11 13 14 17 19 22 24 26 27 28 28 28 27 26 26 25 25 25 25 25 26
28 28 28 27 27 26 26 25 25 23 22 22 22 21 20 19 18 16 15 13 12 11 12 13 14 16 18 21 24 26 27 29 30 30 29 28 27 27 26 25 25 26 26
26 25 25 25 24 24 23 23 23 23 22 22 22 22 21 20 20 18 17 15 14 13 13 14 15 17 18 21 24 27 29 31 32 32 32 31 30 29 28 26 26 26 25
24 23 23 22 21 20 20 20 20 20 20 20 21 21 22 21 21 20 19 18 17 16 16 16 17 18 19 22 25 28 30 32 34 35 34 34 33 31 30 28 27 26 25
24 23 22 21 19 18 17 16 16 17 18 18 19 20 21 21 21 21 20 19 18 18 18 18 18 19 20 23 25 28 32 34 36 37 37 36 35 33 31 29 27 26 25
26 25 23 21 20 18 16 14 14 14 15 16 18 19 20 20 21 21 20 20 19 19 19 19 19 20 22 24 26 29 32 35 37 38 39 38 36 34 32 30 28 26 25
Wind_Direction
290 283 274 269 266 263 261 258 256 256 257 260 259 257 253 253 255 259 262 262 264 265 266 267 268 269 270 270 270 272 274 275 277 280 283 283 282 278 272 268 266 265 264
296 284 273 264 257 253 251 248 247 248 250 252 251 251 251 253 257 260 261 261 262 264 266 268 269 269 269 269 269 270 272 273 276 280 282 285 285 284 279 274 269 266 264
302 288 272 259 249 244 242 241 241 243 245 246 246 248 249 254 257 260 261 262 264 266 268 269 269 270 270 270 270 270 270 272 273 276 278 280 283 286 285 280 273 266 264
303 293 277 258 246 238 238 238 236 238 239 238 240 245 250 255 259 262 264 266 267 269 270 270 270 271 272 272 271 270 270 271 272 273 274 276 279 281 285 284 277 268 263
308 297 284 271 255 244 240 237 234 235 238 239 243 250 256 261 264 266 268 270 271 272 272 272 272 272 273 273 272 271 271 271 271 271 272 273 274 275 278 280 279 271 267
309 299 289 276 273 268 263 261 258 255 254 255 256 259 262 266 269 271 272 273 273 273 273 274 273 273 273 274 273 272 272 272 272 272 272 272 272 272 272 274 275 270 266
309 301 291 285 283 282 280 278 275 272 270 268 267 268 269 270 271 272 273 273 273 274 274 274 274 274 275 275 274 274 274 274 274 274 274 273 272 271 270 270 269 268 265
304 300 294 288 287 285 283 280 278 278 275 272 272 273 272 272 272 271 271 272 273 274 276 276 277 277 277 276 276 277 276 276 277 276 276 275 273 272 269 267 266 265 262
299 293 290 286 284 282 280 278 277 276 274 274 274 271 271 271 270 269 269 271 274 276 279 281 281 282 283 283 283 282 281 281 280 279 279 278 276 274 271 268 265 264 262
290 288 287 284 282 279 276 273 273 274 276 275 270 264 262 263 263 264 268 273 277 280 283 286 288 289 288 288 287 286 285 284 283 281 280 279 277 276 274 271 268 265 263
285 284 283 281 280 278 274 270 269 270 268 263 258 256 256 257 259 265 271 277 282 286 289 291 293 293 293 291 289 288 287 286 284 282 281 279 277 276 274 273 271 269 266
277 280 281 281 280 276 267 260 255 251 248 247 247 251 254 256 263 270 277 283 288 292 294 295 296 296 296 294 293 291 290 288 286 285 283 281 279 277 275 272 270 269 267
267 270 272 272 269 263 254 244 238 235 236 240 244 249 256 264 271 278 285 291 294 296 299 300 301 302 302 300 298 296 295 293 291 289 287 285 282 280 277 274 271 269 267
257 261 262 261 258 253 246 241 239 238 240 244 251 258 265 271 278 285 290 295 298 300 303 305 307 310 311 309 307 305 302 299 297 295 293 291 288 284 280 277 275 272 269
251 253 254 255 254 252 250 247 246 247 250 254 259 265 269 275 282 287 291 295 300 305 309 312 316 318 319 318 315 311 307 303 301 299 298 296 294 291 287 282 278 275 272
247 248 250 251 253 253 253 253 253 254 255 258 261 265 270 276 282 285 287 292 299 306 312 318 323 325 326 325 322 317 313 309 305 302 299 297 295 292 290 288 285 280 276
246 247 248 250 253 255 256 256 256 256 256 258 260 263 267 272 276 278 281 287 297 306 317 326 331 332 332 331 329 326 323 318 313 309 305 301 297 294 291 290 289 287 283
246 247 249 251 255 257 258 259 259 258 256 257 259 262 264 267 269 270 273 283 296 310 322 331 335 337 337 338 337 335 332 329 324 319 315 310 304 299 295 293 292 291 288
245 247 248 252 256 257 258 260 261 259 257 257 257 259 262 263 263 264 267 278 294 309 322 330 335 339 342 342 341 339 337 334 331 328 323 318 313 307 302 298 296 295 293
243 245 248 251 254 257 258 259 261 261 258 256 256 258 260 260 259 259 261 270 286 302 315 325 333 339 342 343 343 341 339 336 334 331 327 323 318 313 307 301 298 296 294
240 243 246 250 254 256 257 257 259 260 258 255 255 257 257 257 257 256 258 264 277 291 304 317 329 336 339 341 342 342 340 338 336 334 331 327 322 318 312 306 301 298 296
239 240 243 247 250 252 254 256 258 259 258 256 254 255 255 254 255 255 256 259 269 281 294 307 319 329 335 338 340 342 341 340 338 336 333 330 326 321 316 310 304 300 297
237 237 239 242 246 248 251 255 258 259 259 257 254 253 253 253 253 254 255 258 265 276 286 297 309 319 328 333 337 339 340 340 339 337 334 331 328 325 320 314 309 304 300
232 231 233 235 238 242 247 252 257 259 259 257 253 252 252 253 252 252 254 258 264 273 281 289 299 311 321 328 333 336 337 337 337 335 333 331 329 326 322 317 312 308 304
225 226 227 228 230 234 241 248 255 258 259 258 255 253 252 252 253 253 256 260 264 270 277 284 294 305 316 323 328 332 334 335 335 334 332 330 328 325 322 318 314 311 307
220 221 222 223 225 230 236 244 252 258 260 260 258 256 255 255 256 258 260 263 267 271 276 282 291 301 310 318 324 327 331 332 333 332 330 328 327 325 322 318 314 311 309
Height
5744 5739 5737 5736 5736 5737 5738 5741 5743 5746 5749 5751 5753 5755 5757 5759 5762 5764 5765 5766 5767 5768 5768 5768 5768 5768 5768 5767 5767 5766 5765 5764 5763 5761 5759 5757 5755 5753 5752 5752 5751 5751 5752
5728 5723 5721 5721 5721 5723 5726 5729 5732 5736 5738 5741 5743 5746 5749 5751 5753 5755 5756 5758 5758 5759 5759 5759 5759 5759 5759 5759 5758 5758 5757 5756 5755 5753 5751 5749 5747 5744 5743 5742 5741 5741 5742
5718 5713 5710 5710 5710 5712 5716 5719 5723 5727 5729 5733 5736 5738 5741 5743 5745 5747 5748 5749 5750 5751 5750 5750 5750 5750 5750 5750 5749 5749 5748 5747 5746 5745 5743 5741 5739 5737 5735 5733 5732 5731 5732
5712 5708 5705 5704 5705 5707 5709 5712 5716 5719 5722 5725 5728 5731 5733 5736 5738 5739 5740 5741 5742 5742 5742 5742 5742 5741 5741 5741 5740 5740 5739 5738 5737 5736 5735 5733 5732 5731 5729 5727 5725 5724 5723
5709 5706 5704 5704 5704 5705 5706 5708 5711 5714 5717 5719 5722 5724 5727 5729 5730 5732 5733 5733 5734 5734 5734 5733 5733 5732 5732 5732 5731 5730 5730 5729 5728 5727 5726 5725 5724 5723 5722 5721 5719 5718 5716
5707 5705 5704 5704 5704 5704 5705 5706 5708 5711 5712 5714 5716 5719 5721 5722 5724 5725 5726 5726 5726 5726 5726 5725 5724 5724 5723 5723 5722 5721 5720 5719 5718 5717 5717 5716 5715 5715 5715 5714 5713 5712 5710
5705 5703 5702 5702 5702 5702 5702 5704 5705 5707 5709 5710 5712 5714 5715 5716 5717 5718 5719 5719 5718 5718 5718 5717 5716 5715 5715 5714 5713 5712 5711 5710 5710 5709 5708 5707 5706 5706 5706 5706 5705 5705 5704
5703 5702 5701 5700 5700 5700 5700 5701 5702 5703 5705 5706 5707 5709 5709 5710 5711 5711 5711 5711 5711 5711 5710 5709 5709 5708 5707 5706 5705 5704 5703 5701 5700 5699 5699 5698 5697 5697 5697 5697 5697 5697 5697
5702 5700 5699 5698 5698 5698 5698 5698 5699 5700 5701 5701 5702 5703 5703 5704 5704 5705 5705 5705 5705 5705 5704 5703 5702 5701 5700 5698 5697 5696 5694 5693 5691 5690 5689 5688 5687 5687 5687 5687 5687 5688 5688
5699 5698 5697 5696 5696 5696 5695 5695 5696 5696 5696 5696 5697 5698 5699 5699 5700 5700 5700 5700 5700 5700 5699 5698 5697 5695 5694 5692 5690 5688 5687 5685 5683 5681 5680 5679 5679 5678 5678 5677 5677 5678 5678
5697 5696 5695 5694 5693 5693 5692 5692 5692 5692 5692 5693 5694 5694 5695 5696 5696 5697 5697 5696 5696 5695 5694 5693 5692 5690 5688 5686 5683 5681 5679 5677 5675 5673 5671 5670 5669 5669 5668 5668 5668 5668 5669
5694 5693 5692 5691 5691 5690 5689 5689 5689 5689 5689 5690 5691 5692 5692 5693 5693 5693 5693 5693 5692 5691 5690 5689 5687 5684 5682 5679 5676 5674 5671 5668 5666 5664 5662 5660 5659 5658 5658 5658 5658 5658 5659
5690 5690 5689 5689 5688 5688 5687 5687 5687 5687 5687 5688 5688 5689 5689 5689 5689 5689 5689 5688 5688 5687 5685 5683 5681 5679 5676 5673 5670 5666 5663 5660 5657 5655 5653 5651 5649 5648 5647 5647 5647 5648 5648
5686 5686 5686 5686 5685 5685 5685 5684 5684 5685 5685 5685 5685 5686 5686 5686 5685 5685 5685 5684 5683 5682 5680 5678 5675 5672 5669 5666 5663 5660 5656 5653 5650 5647 5645 5643 5640 5639 5638 5637 5636 5636 5637
5681 5681 5681 5681 5681 5681 5681 5681 5682 5682 5682 5682 5682 5682 5682 5682 5682 5681 5681 5680 5678 5677 5674 5672 5670 5667 5664 5660 5657 5653 5650 5647 5644 5641 5638 5635 5633 5631 5629 5628 5627 5626 5626
5675 5675 5676 5676 5677 5677 5677 5677 5677 5678 5678 5678 5678 5678 5677 5677 5677 5677 5676 5675 5674 5672 5670 5668 5665 5662 5658 5655 5651 5648 5644 5641 5637 5634 5631 5629 5626 5624 5622 5620 5619 5618 5617
5668 5669 5670 5671 5671 5672 5672 5672 5672 5673 5673 5673 5673 5673 5673 5673 5672 5672 5672 5671 5669 5668 5666 5663 5660 5657 5654 5650 5647 5643 5639 5635 5631 5628 5625 5622 5619 5617 5615 5613 5612 5610 5609
5660 5661 5663 5664 5665 5666 5666 5667 5667 5667 5667 5667 5667 5667 5667 5668 5668 5667 5667 5666 5665 5663 5661 5659 5657 5654 5650 5647 5643 5638 5634 5630 5626 5622 5619 5616 5613 5610 5608 5606 5604 5602 5600
5651 5653 5655 5656 5658 5659 5660 5660 5660 5661 5661 5661 5661 5661 5662 5662 5662 5662 5662 5661 5661 5659 5658 5655 5653 5650 5647 5643 5639 5635 5630 5626 5621 5617 5613 5610 5607 5604 5601 5599 5597 5595 5593
5641 5643 5646 5648 5649 5651 5652 5653 5654 5654 5654 5654 5655 5655 5656 5657 5657 5657 5657 5657 5656 5655 5654 5652 5650 5647 5644 5640 5636 5631 5627 5622 5617 5612 5608 5604 5600 5597 5594 5592 5589 5587 5585
5630 5633 5636 5639 5641 5643 5644 5645 5646 5647 5647 5648 5649 5649 5650 5651 5652 5652 5652 5652 5652 5651 5650 5648 5646 5643 5640 5637 5633 5628 5623 5618 5613 5608 5603 5599 5595 5591 5588 5584 5582 5579 5576
5620 5624 5627 5630 5632 5634 5636 5637 5639 5640 5641 5642 5642 5643 5644 5645 5646 5646 5647 5647 5647 5646 5645 5644 5642 5639 5636 5633 5629 5624 5620 5615 5609 5604 5599 5594 5589 5585 5581 5578 5574 5571 5568
5612 5615 5619 5621 5624 5626 5628 5630 5631 5633 5634 5635 5636 5637 5638 5639 5640 5640 5641 5642 5641 5641 5640 5639 5637 5635 5632 5628 5624 5619 5615 5609 5604 5599 5593 5588 5583 5579 5575 5571 5567 5564 5561
5603 5607 5611 5614 5617 5619 5621 5623 5625 5626 5627 5628 5630 5631 5632 5633 5634 5635 5635 5635 5635 5635 5634 5633 5631 5629 5626 5623 5619 5614 5610 5605 5599 5594 5588 5583 5577 5572 5568 5563 5560 5556 5553
5596 5600 5604 5607 5610 5613 5616 5617 5619 5620 5621 5622 5623 5625 5626 5627 5628 5629 5629 5629 5629 5629 5628 5627 5625 5623 5620 5617 5613 5609 5604 5599 5594 5588 5582 5577 5571 5566 5561 5556 5552 5549 5546
5589 5593 5598 5601 5605 5608 5610 5612 5614 5615 5616 5617 5618 5619 5620 5621 5622 5623 5623 5623 5623 5622 5621 5620 5619 5617 5614 5611 5607 5603 5599 5594 5588 5582 5576 5570 5565 5559 5554 5549 5545 5542 5539